This is the latest recevied weather packets stored in our database for station/object K7SKM. If no packets are shown the sender has not sent any weather packets the latest 10 day(s).
| Time | Temp. | Humidity | Pressure | Rain* | Wind** | Luminosity | Snow |
|---|---|---|---|---|---|---|---|
| 1788120775 | 21.11° C | 53% | 1024.8 hPa | 0 mm | - | 428 W/m² | - |
| 1788120471 | 20° C | 55% | 1024.9 hPa | 0 mm | - | 421 W/m² | - |
| 1788120170 | 19.44° C | 57% | 1025 hPa | 0 mm | - | 137 W/m² | - |
| 1788119866 | 20.56° C | 53% | 1025.1 hPa | 0 mm | - | 136 W/m² | - |
| 1788119565 | 20.56° C | 52% | 1025 hPa | 0 mm | - | 109 W/m² | - |
| 1788119263 | 21.67° C | 50% | 1025.2 hPa | 0 mm | - | 130 W/m² | - |
| 1788118958 | 21.11° C | 52% | 1024.9 hPa | 0 mm | - | 472 W/m² | - |
| 1788118652 | 20.56° C | 53% | 1025.1 hPa | 0 mm | - | 440 W/m² | - |
| 1788118346 | 20.56° C | 54% | 1025 hPa | 0 mm | - | 430 W/m² | - |
| 1788118042 | 20.56° C | 56% | 1025.1 hPa | 0 mm | - | 420 W/m² | - |
| 1788117737 | 20° C | 55% | 1025.1 hPa | 0 mm | - | 302 W/m² | - |
| 1788117433 | 20° C | 57% | 1025.2 hPa | 0 mm | - | 126 W/m² | - |
| 1788117127 | 19.44° C | 56% | 1025 hPa | 0 mm | - | 148 W/m² | - |
| 1788116822 | 19.44° C | 56% | 1024.9 hPa | 0 mm | - | 409 W/m² | - |
| 1788116518 | 19.44° C | 56% | 1025 hPa | 0 mm | - | 99 W/m² | - |
| 1788116215 | 20° C | 56% | 1025.1 hPa | 0 mm | - | 113 W/m² | - |
| 1788115912 | 20° C | 54% | 1025.2 hPa | 0 mm | - | 106 W/m² | - |
| 1788115611 | 20.56° C | 54% | 1025.3 hPa | 0 mm | - | 174 W/m² | - |
| 1788115310 | 20.56° C | 54% | 1025.3 hPa | 0 mm | - | 322 W/m² | - |
| 1788115005 | 19.44° C | 55% | 1025.2 hPa | 0 mm | - | 329 W/m² | - |
| 1788114701 | 20.56° C | 54% | 1025.3 hPa | 0 mm | - | 319 W/m² | - |
| 1788114396 | 20.56° C | 55% | 1025.4 hPa | 0 mm | - | 282 W/m² | - |
| 1788114092 | 19.44° C | 59% | 1025.3 hPa | 0 mm | - | 384 W/m² | - |
| 1788113788 | 20° C | 54% | 1025.4 hPa | 0 mm | - | 368 W/m² | - |
| 1788113488 | 20.56° C | 54% | 1025.4 hPa | 0 mm | - | 311 W/m² | - |
* Rain latest hour (hover to see other rain measurements)
** Current wind speed in m/s (hover to see current wind gust speed)